Location: Sungai Segaam
(2.7333°N, 113.8833°E)
Time: 15:51:09
(UTC+00:00)

Daily predictions for brighter satellites

Satellite Brightness Start Highest point End
(mag) Time Altitude Azimuth Time Altitude Azimuth Time Altitude Azimuth
Atlas Centaur 2 3.6 12:00:56 10° W 12:06:48 34° SW 12:10:21 17° SSE
Cosmos 1959 Rocket 4.5 12:01:16 10° S 12:07:25 80° W 12:13:30 10° N
ARIANE 5 DEB (SYLDA) 3.8 12:08:23 10° WSW 12:10:11 21° SW 12:10:11 21° SW
SL-08 RB Rocket 3.6 12:07:47 10° S 12:12:15 83° WSW 12:16:44 10° NNW
Lacrosse 5 3.7 12:10:27 10° S 12:12:07 18° SSE 12:12:07 18° SSE
Lacrosse 5 rocket 4.2 12:12:38 10° W 12:14:52 15° WSW 12:17:04 10° SSW
Meteor 2-4 Rocket 3.7 12:12:32 10° N 12:18:27 79° E 12:24:22 10° S
ARIANE 5 R/B 3.4 12:17:36 10° W 12:20:59 89° S 12:23:02 51° E
ARIANE 44L R/B 3.7 12:17:47 10° WSW 12:20:56 30° SW 12:20:56 30° SW
Ariane H10-3 3.8 12:20:14 10° W 12:20:53 19° WSW 12:20:53 19° WSW
ARIANE 44LP R/B 4.4 12:06:49 10° W 12:30:22 44° SSW 12:31:53 38° SSE
Cosmos 1980 3.6 12:25:56 10° SSW 12:31:35 79° WNW 12:31:43 79° NW
ARIANE 5 R/B 2.7 12:26:01 10° W 12:31:35 39° WNW 12:31:35 39° WNW
FALCON 9 R/B 4.0 12:26:26 10° SW 12:33:17 64° SE 12:38:49 45° ENE
Ariane 42L Rocket 4.0 12:35:09 10° W 12:39:57 36° WNW 12:39:57 36° WNW
ATLAS 2A CENTAUR R/B 4.5 12:23:21 10° WNW 12:53:48 40° N 12:55:20 39° NNE
Ariane H10+ 4.4 13:19:59 10° W 13:41:38 50° SSW 13:41:38 50° SSW
Ariane H10+ 4.4 20:06:50 15° E 20:06:50 15° E 20:08:08 10° E
Ariane 42L Rocket 4.0 20:26:47 77° WSW 20:27:27 84° S 20:44:30 10° E
CZ-2C R/B 3.8 20:28:53 18° SE 20:28:53 18° SE 20:31:37 10° E
Cosmos 909 Rocket 4.3 20:32:26 74° NW 20:32:26 74° NW 20:39:08 10° NNE
Centaur D-1AR AC-39 3.1 20:35:35 32° NE 20:35:35 32° NE 20:38:10 10° ENE
SL-08 ROCKET BODY 4.5 20:36:55 21° N 20:41:15 78° E 20:47:27 10° S
Delta 168 3.9 20:43:57 47° SSE 20:43:57 47° SSE 20:48:25 10° SE
Cosmos 883 Rocket 4.3 20:39:50 10° S 20:46:05 78° W 20:52:15 10° N
Cosmos 1110 Rocket 3.9 20:48:01 70° NNE 20:48:32 80° E 20:53:41 10° SSE
ARIANE 5 DEB (SYLDA) 3.4 20:50:12 81° SSW 20:50:18 82° S 21:00:18 10° E
Cosmos 2315 Rocket 3.8 20:47:26 10° S 20:53:43 84° W 20:59:56 10° N
Cosmos 2278 4.1 20:56:51 46° SW 20:56:51 46° SW 21:01:16 10° S
USA 234 4.3 20:51:37 10° ESE 20:57:42 42° NE 21:03:45 10° NNW
Intelsat 5-3 Rocket 2.5 21:00:23 63° ESE 21:00:23 63° ESE 21:05:04 10° ESE
GPS 2-18 Rocket1 3.7 21:01:12 51° ENE 21:01:12 51° ENE 21:04:05 10° ENE
NOSS 3-4 (A) 3.3 21:02:41 53° W 21:03:11 55° WNW 21:08:49 10° N
NOSS 3-4 (C) 3.3 21:02:37 53° W 21:03:15 56° WNW 21:08:55 10° N
DELTA 2 R/B (1) 3.8 21:04:07 48° SW 21:04:28 49° SW 21:09:51 10° SSE
CZ-3 R/B 4.1 20:54:56 31° W 21:05:15 42° NW 21:14:41 10° NNE
Cosmos 407 Rocket 3.8 21:00:52 10° S 21:06:07 65° ESE 21:11:16 10° NNE
ARIANE 44L R/B 3.7 21:06:18 38° SW 21:07:45 51° S 21:24:46 10° ESE
Ariane H10 1.7 21:10:12 57° NE 21:10:12 57° NE 21:12:33 10° ENE
Ariane H10+ 2.4 21:15:03 28° NE 21:15:03 28° NE 21:16:40 10° ENE
Cosmos 2297 Rocket 4.3 21:10:21 10° SSE 21:15:06 28° ESE 21:19:50 10° NE
Cosmos 1408 Rocket 3.6 21:15:26 50° WSW 21:15:26 50° WSW 21:19:22 10° S
Cosmos 1980 Rocket 3.3 21:17:48 25° SW 21:17:48 25° SW 21:21:11 10° SSW
ATLAS 2AS CENTAUR R/B 2.9 21:09:19 10° SSW 21:16:51 80° WNW 21:24:45 10° NNE
Landsat 5 3.2 21:13:01 10° SSE 21:16:56 82° ENE 21:20:45 10° N
H-2A R/B 3.4 21:13:18 10° SSE 21:17:29 41° ENE 21:21:34 10° N
Cosmos 614 Rocket 4.3 21:17:37 40° W 21:18:01 40° WNW 21:22:53 10° N
Atlas Centaur 2 4.4 21:17:05 10° SSE 21:18:44 12° SE 21:20:29 10° ESE
Alouette 2 Rocket 3.5 21:16:53 22° SSW 21:19:11 57° W 21:23:58 10° N
GPS 2-17 Rocket1 4.3 21:19:13 25° NNW 21:19:45 26° NNW 21:23:40 10° NE
Hubble Space Telescope 2.1 21:20:26 25° SSW 21:20:34 25° SSW 21:24:02 10° SSE
H-2A R/B 3.3 21:20:37 10° NNE 21:24:22 59° E 21:28:06 10° S
Spelda 4.3 21:25:25 24° NNW 21:26:26 30° NNE 21:32:17 10° ENE
Cosmos 1500 Rocket 3.4 21:25:51 10° N 21:30:13 76° W 21:34:38 10° S
Cosmos 2322 Rocket 3.0 21:25:08 10° N 21:30:38 53° ENE 21:36:10 10° SSE
NATO 3D Rocket 4.1 21:30:00 20° WSW 21:34:08 80° SSE 21:42:12 10° ENE
Ariane H10-3 4.2 21:33:24 13° SW 21:34:47 15° SSW 21:36:30 10° SSE
Cosmos 1862 3.7 21:32:35 10° NNW 21:36:20 40° W 21:40:05 10° SSW
ATLAS 3B CENTAUR R/B 3.8 21:32:53 10° SSW 21:36:43 33° SE 21:44:03 10° ENE
Cosmos 1151 Rocket 2.9 21:33:25 10° S 21:37:49 87° WNW 21:42:09 10° N
Cosmos 1933 3.7 21:36:55 10° SSW 21:40:39 38° W 21:44:22 10° NNW
ADEOS 4.4 21:36:33 10° NNW 21:40:50 26° WNW 21:45:06 10° SW
Ariane H10-3 2.3 21:42:21 15° WSW 21:44:31 34° S 21:47:50 10° ESE
Cosmos 2219 3.9 21:40:36 10° S 21:46:13 58° ESE 21:51:47 10° NNE
RESURS DK-1 4.0 21:42:57 10° S 21:46:47 38° ESE 21:50:35 10° NE
OAO 2 Rocket 3.4 21:42:25 10° SW 21:47:29 81° SE 21:52:28 10° NE
USA 215 3.4 21:42:45 10° NE 21:49:18 82° SE 21:55:50 10° SSW
CREW DRAGON DEMO-1 DEB 3.2 21:48:23 10° NNW 21:51:09 56° NE 21:53:56 10° SE
YAOGAN 6 2.4 21:51:27 10° N 21:54:54 69° W 21:58:21 10° SSW
SL-16 R/B 2.2 21:49:43 10° NNW 21:55:16 59° WSW 22:00:49 10° S
Cosmos 1140 Rocket 4.0 21:53:33 10° SW 21:58:18 35° WNW 22:03:03 10° NNW
Envisat 3.0 21:54:05 10° N 21:59:06 66° WNW 22:04:08 10° SSW
Cosmos 1515 Rocket 3.9 21:54:51 10° S 21:59:09 67° E 22:03:26 10° N
SJ-7 4.3 21:55:12 10° N 21:59:12 67° W 22:03:16 10° SSW
Cosmos 1328 Rocket 3.8 21:59:16 10° SSW 22:03:25 46° W 22:07:32 10° NNW
Timation 2 Rocket 4.2 21:56:46 10° SSW 22:03:34 88° WNW 22:10:27 10° NNE
COSMO-SKYMED 1 2.7 22:02:18 10° SSE 22:06:39 85° ENE 22:10:58 10° N
CZ-2C R/B 1.6 22:03:55 10° WSW 22:08:09 52° NW 22:12:27 10° NE
ATLAS CENTAUR R/B 2.2 22:06:14 10° NW 22:10:24 37° WSW 22:14:46 10° S
Cosmos 2237 4.2 22:09:16 10° NNW 22:14:57 85° WSW 22:20:38 10° SSE
CZ-4B R/B 4.4 22:12:25 10° NNW 22:15:43 20° WNW 22:18:59 10° SW
